Location: Aragüita
(10.0436°N, 67.8028°W)
Time: 14:36:54
(UTC+00:00)

Cosmos 1867 - Pass Details

Date: 14 April 2024
Orbit: 772 x 802 km, 65.0° (Epoch: 28 May)

Event Time Altitude Azimuth Distance (km) Brightness Sun altitude
Rises 08:24:11 0° 342° (NNW) 3,295 6.8 -28.9°
Reaches altitude 10° 08:26:37 10° 345° (NNW) 2,362 6.0 -28.3°
Maximum altitude 08:32:02 68° 68° (ENE) 854 3.8 -27.0°
Drops below altitude 10° 08:37:23 10° 150° (SSE) 2,346 6.2 -25.7°
Sets 08:39:48 0° 153° (SSE) 3,270 6.9 -25.2°
